Showing default

ALOUETTE 1 (S-27), 424

Orbit data source: Space-Track

ALOUETTE 1 (S-27), 424 is a payload satellite owned by DRTE (CA) in LEO that was launched on Sat, 29 Sep 1962 UTC via a THOR AGENA B launch vehicle from the Air Force Western Test Range (AFWTR). Payloads include a variety of satellites, spacecraft, and rockets equipped with specific instruments for various scientific and technological missions. These include communications satellites like Starlink; space stations such as the ISS; scientific satellites like the Hubble; Earth observation satellites from companies like Planet Labs, Umbra, and HawkEye 360; GPS; miniature CubeSats for education and research; and military/defense satellites.

Loading next visibility...
ALOUETTE 1 (S-27) details
Identifier
424, 1962-049A
Orbit
LEO
Last TLE update7 hours ago
Origin
Flag of CADRTE (CA)
ManufacturerDEHAVT/RCAV
MissionCivil Science
Bus & MotorALOUETTE, Unknown motor
Mass145 kg wet, 145 kg dry
Launch date (UTC)
1962-09-29 (62 years ago)
Launch vehicle
THOR AGENA B
Launch site
Air Force Western Test Range (AFWTR)
Object type
Payload
Rocket body
Debris
Shape & HBREll, 1.07 m
Radar Cross Section0.784 m², Large (>1 m²)

Expand to show TLE details & history

TLE from 7 hours ago
0 ALOUETTE 1 (S-27)
1   424U 62049A   25014.12653950  .00000129  00000-0  13741-3 0  9995
2   424  80.4657  49.9849 0023821 135.2598 225.0475 13.69468241110252
Epoch: 2025-01-14T03:02Z
Definitive object data (Epoch: 2025-01-14T03:02:13.012Z)
Latitude-0°
Longitude-109.40702°
Altitude1,016.742 km
Speed7.337 km/s
True Right ascension03h 19m 56s
True Declination0° 00' 00"
Sunlit
Object was in daylight at TLE epoch
Visualization TLE readout
Latitude-75.03066°
Longitude109.00174°
Altitude1,038.427 km
Speed7.327 km/s
Apparent Right ascension21h 02m 15s
Apparent Declination-61° 51' 36"
Sunlit
Object is in daylight
Visualization observer readout
Local Sidereal Time10:09:06
Azimuth160.663° S
Elevation-65.821°
Doppler factor1
Orbital elements
Apogee altitude1,016.32 km
Perigee altitude981.175 km
Semi-major axis7,376.885 km
Eccentricity0.0023821
Inclination80.4657°
RAAN49.9849°
Arg. of periapsis135.2598°
True anomaly224.85473°
Mean anomaly225.0475°
Eccentric anomaly224.95107°
Mean motion3.42558 °/min
BSTAR0.00013741
Orbital period105.09 mins
Loading maneuver chart data...
Loading historical data...
Loading historical data...
Loading historical data...
Loading historical data...
Loading historical data...
Loading historical data...
Loading historical data...
Other satellites on launch #49 in the year 1962 (1962-09-29 UTC)

ALOUETTE 1 (S-27) Visibility forecast

Observer location: undefined°, undefined

Span
Click to sort rows by Start time (UTC) header in descending order
Start Az.
Max El. time (UTC)
Max El. Az.
Max El.
End time (UTC)
End Az.
6 mins2025-01-14 12:24:09.295Z33.58° NE2025-01-14 12:27:09.295Z63.705° ENE14.33°2025-01-14 12:30:09.295Z93.425° ESE
11 mins2025-01-14 14:09:09.295Z347.544° N2025-01-14 14:14:09.295Z257.556° W44.785°2025-01-14 14:20:09.295Z174.854° S
8 mins2025-01-15 01:58:09.295Z129.686° SE2025-01-15 02:01:09.295Z93.288° ESE23.688°2025-01-15 02:06:09.295Z37.264° NE
10 mins2025-01-15 03:43:09.295Z220.709° SW2025-01-15 03:47:09.295Z278.686° WNW35.695°2025-01-15 03:53:09.295Z357.347° N
|